World > North America > United States > Virginia

Hourly Lakeside, VA Regional Weather

Feedback E-mail the Weather

Quick WX

Lakeside, VA Weather Maps

°F °C°F °C
Lakeside Weather Map
UTC Time: 7/1/2022, 08:04
Your Time:

Lakeside, VA Regional Weather

Expires:202207010800;;480247
ASUS41 KAKQ 010715
RWRAKQ

REGIONAL WEATHER ROUNDUP
NATIONAL WEATHER SERVICE WAKEFIELD VA
300 AM EDT FRI JUL 01 2022

Note: "fair" indicates few or no clouds below 12,000 feet with no
significant weather and/or obstructions to visibility. * = Denotes
station may not report precipitation (e.g., rain,snow,etc.),
thunder or fog.


VAZ088>098-010800-
SOUTHEAST VIRGINIA
  
CITY           SKY/WX    TMP DP  RH WIND       PRES   REMARKS
NORFOLK        PTCLDY    74  71  91 S9        30.16F                  
VIRGINIA BEACH PTCLDY    74  71  91 S6        30.16F                  
NORFOLK NAVAL  PTCLDY    74  71  91 S8        30.17F                  
WEST POINT*    PTCLDY    74  71  89 CALM      30.16F                  
SALUDA*        FAIR      74  70  88 S6        30.15F                  
NEWPORT NEWS   PTCLDY    75  73  93 S9        30.16F                  
LANGLEY AFB    PTCLDY    75  75  99 S9        30.15F                  
FORT EUSTIS    PTCLDY    75  72  88 S8        30.14F                  
WILLIAMSBURG*  PTCLDY    77  73  88 S6        30.17F                  
HR EXEC AP*    FAIR      69  68  96 S5        30.18F                  
FRANKLIN*      PTCLDY    73  72  98 S3        30.17F                  
US460-WAKEFLD  PTCLDY    73  70  90 S3        30.16F                  
$$


SKY/WX - Weather  TMP - Temperature  DP - Dew Point  RH - Humidity
WIND - Wind Direction/Speed PRES - Barometric Pressure VSB - Visibility
WCI - Wind Chill Index E13G22 Wind - East Wind 13 mph/Gusts of 22 mph

Trending Headlines

Lakeside Radar Loop



Lakeside Quick Facts


National Two Day Weather Forecast


E-mail the Lakeside Weather Forecast

Voice your opinion or tell us about page issues...